Time,TemperatureF,DewpointF,PressureIn,WindDirection,WindDirectionDegrees,WindSpeedMPH,WindSpeedGustMPH,Humidity,HourlyPrecipIn,Conditions,Clouds,dailyrainin,SoftwareType,DateUTC
2013-03-20 00:02:00,42.0,40.0,29.58,SSW,200,0.0,0.0,92,0.08,,,0.39,,2013-03-20 07:02:00,
2013-03-20 00:11:00,42.0,40.0,29.58,SSW,200,0.0,0.0,92,0.08,,,0.39,,2013-03-20 07:11:00,
2013-03-20 00:21:00,42.0,40.0,29.58,SSW,200,1.0,2.0,92,0.07,,,0.40,,2013-03-20 07:21:00,
2013-03-20 00:31:00,42.0,40.0,29.58,WSW,246,1.0,4.0,92,0.07,,,0.42,,2013-03-20 07:31:00,
2013-03-20 00:41:00,42.0,40.0,29.58,WSW,246,1.0,4.0,92,0.07,,,0.42,,2013-03-20 07:41:00,
2013-03-20 00:52:00,42.0,40.0,29.57,SE,132,0.0,2.0,92,0.07,,,0.44,,2013-03-20 07:52:00,
2013-03-20 01:01:00,42.0,40.0,29.56,SE,125,0.0,2.0,92,0.07,,,0.46,,2013-03-20 08:01:00,
2013-03-20 01:11:00,42.0,40.0,29.56,SE,125,0.0,2.0,92,0.07,,,0.46,,2013-03-20 08:11:00,
2013-03-20 01:21:00,42.0,40.0,29.55,SE,124,1.0,2.0,92,0.07,,,0.48,,2013-03-20 08:21:00,
2013-03-20 01:32:00,43.0,41.0,29.54,SE,126,1.0,2.0,92,0.07,,,0.49,,2013-03-20 08:32:00,
2013-03-20 01:42:00,43.0,41.0,29.54,SE,126,1.0,2.0,92,0.07,,,0.49,,2013-03-20 08:42:00,
2013-03-20 01:52:00,43.0,41.0,29.54,ESE,123,0.0,4.0,92,0.07,,,0.51,,2013-03-20 08:52:00,
2013-03-20 02:01:00,43.0,41.0,29.52,SE,139,1.0,4.0,92,0.07,,,0.53,,2013-03-20 09:01:00,
2013-03-20 02:11:00,43.0,41.0,29.52,SE,139,1.0,4.0,92,0.07,,,0.53,,2013-03-20 09:11:00,
2013-03-20 02:22:00,43.0,41.0,29.52,SSW,207,2.0,6.0,92,0.05,,,0.53,,2013-03-20 09:22:00,
2013-03-20 02:32:00,44.0,42.0,29.51,SE,136,2.0,6.0,92,0.05,,,0.54,,2013-03-20 09:32:00,
2013-03-20 02:42:00,44.0,42.0,29.51,SE,136,2.0,6.0,92,0.05,,,0.54,,2013-03-20 09:42:00,
2013-03-20 02:53:00,44.0,42.0,29.50,South,178,2.0,7.0,92,0.04,,,0.55,,2013-03-20 09:53:00,
2013-03-20 03:02:00,45.0,43.0,29.49,South,184,2.0,9.0,92,0.02,,,0.55,,2013-03-20 10:02:00,
2013-03-20 03:12:00,45.0,43.0,29.49,South,184,2.0,9.0,92,0.02,,,0.55,,2013-03-20 10:12:00,
2013-03-20 03:22:00,45.0,43.0,29.48,SSW,202,4.0,10.0,92,0.02,,,0.55,,2013-03-20 10:22:00,
2013-03-20 03:32:00,45.0,43.0,29.47,South,174,3.0,7.0,92,0.01,,,0.55,,2013-03-20 10:32:00,
2013-03-20 03:42:00,45.0,43.0,29.47,South,174,3.0,7.0,92,0.01,,,0.55,,2013-03-20 10:42:00,
2013-03-20 03:53:00,45.0,43.0,29.47,SSW,201,2.0,7.0,92,0.00,,,0.55,,2013-03-20 10:53:00,
2013-03-20 04:02:00,46.0,44.0,29.46,South,179,2.0,6.0,92,0.00,,,0.55,,2013-03-20 11:02:00,
2013-03-20 04:11:00,46.0,44.0,29.46,South,179,2.0,6.0,92,0.00,,,0.55,,2013-03-20 11:11:00,
2013-03-20 04:22:00,46.0,44.0,29.45,SE,132,0.0,5.0,92,0.01,,,0.56,,2013-03-20 11:22:00,
2013-03-20 04:32:00,46.0,44.0,29.45,SSE,167,1.0,4.0,92,0.01,,,0.56,,2013-03-20 11:32:00,
2013-03-20 04:42:00,46.0,44.0,29.45,SSE,167,1.0,4.0,92,0.01,,,0.56,,2013-03-20 11:42:00,
2013-03-20 04:52:00,46.0,44.0,29.43,SE,145,0.0,5.0,92,0.02,,,0.57,,2013-03-20 11:52:00,
2013-03-20 05:02:00,47.0,45.0,29.42,South,177,2.0,9.0,92,0.04,,,0.59,,2013-03-20 12:02:00,
2013-03-20 05:11:00,47.0,45.0,29.42,South,177,2.0,9.0,92,0.04,,,0.59,,2013-03-20 12:11:00,
2013-03-20 05:22:00,47.0,45.0,29.41,ESE,121,1.0,3.0,92,0.04,,,0.60,,2013-03-20 12:22:00,
2013-03-20 05:32:00,47.0,45.0,29.41,ESE,121,1.0,2.0,92,0.05,,,0.61,,2013-03-20 12:32:00,
2013-03-20 05:42:00,47.0,45.0,29.41,ESE,121,1.0,2.0,92,0.05,,,0.61,,2013-03-20 12:42:00,
2013-03-20 05:52:00,47.0,45.0,29.40,ESE,113,2.0,4.0,92,0.06,,,0.63,,2013-03-20 12:52:00,
2013-03-20 06:02:00,47.0,45.0,29.39,SSE,154,1.0,5.0,92,0.05,,,0.64,,2013-03-20 13:02:00,
2013-03-20 06:12:00,47.0,45.0,29.39,SSE,154,1.0,5.0,92,0.05,,,0.64,,2013-03-20 13:12:00,
2013-03-20 06:22:00,47.0,45.0,29.39,SSE,155,3.0,5.0,92,0.05,,,0.65,,2013-03-20 13:22:00,
2013-03-20 06:32:00,47.0,45.0,29.38,SE,134,2.0,4.0,93,0.05,,,0.66,,2013-03-20 13:32:00,
2013-03-20 06:42:00,47.0,45.0,29.38,SE,134,2.0,4.0,93,0.05,,,0.66,,2013-03-20 13:42:00,
2013-03-20 07:02:00,47.0,45.0,29.36,SE,130,2.0,7.0,93,0.04,,,0.68,,2013-03-20 14:02:00,
2013-03-20 07:11:00,47.0,45.0,29.36,SE,130,2.0,7.0,93,0.04,,,0.68,,2013-03-20 14:11:00,
2013-03-20 07:22:00,48.0,46.0,29.36,SE,134,3.0,11.0,92,0.04,,,0.69,,2013-03-20 14:22:00,
2013-03-20 07:32:00,48.0,46.0,29.36,East,100,3.0,8.0,92,0.04,,,0.70,,2013-03-20 14:32:00,
2013-03-20 07:42:00,48.0,46.0,29.36,East,100,3.0,8.0,92,0.04,,,0.70,,2013-03-20 14:42:00,
2013-03-20 07:52:00,49.0,47.0,29.35,WNW,286,1.0,10.0,92,0.04,,,0.71,,2013-03-20 14:52:00,
2013-03-20 08:02:00,50.0,48.0,29.35,ESE,113,4.0,10.0,92,0.04,,,0.72,,2013-03-20 15:02:00,
2013-03-20 08:12:00,50.0,48.0,29.36,South,175,4.0,10.0,92,0.04,,,0.73,,2013-03-20 15:12:00,
2013-03-20 08:22:00,50.0,48.0,29.36,South,175,4.0,10.0,92,0.04,,,0.73,,2013-03-20 15:22:00,
2013-03-20 08:33:00,50.0,47.0,29.36,SW,227,3.0,11.0,91,0.04,,,0.74,,2013-03-20 15:33:00,
2013-03-20 08:42:00,50.0,47.0,29.36,SW,227,3.0,11.0,91,0.04,,,0.74,,2013-03-20 15:42:00,
2013-03-20 08:53:00,50.0,47.0,29.36,SSE,147,1.0,11.0,91,0.04,,,0.75,,2013-03-20 15:53:00,
2013-03-20 09:02:00,51.0,48.0,29.36,SSW,194,5.0,10.0,91,0.04,,,0.76,,2013-03-20 16:02:00,
2013-03-20 09:12:00,51.0,48.0,29.36,SSW,194,5.0,10.0,91,0.04,,,0.76,,2013-03-20 16:12:00,
2013-03-20 09:22:00,50.0,47.0,29.37,South,180,7.0,18.0,91,0.04,,,0.77,,2013-03-20 16:22:00,
2013-03-20 09:32:00,50.0,47.0,29.38,South,182,8.0,22.0,88,0.04,,,0.78,,2013-03-20 16:32:00,
2013-03-20 09:42:00,50.0,47.0,29.38,South,182,8.0,22.0,88,0.04,,,0.78,,2013-03-20 16:42:00,
2013-03-20 09:52:00,49.0,46.0,29.39,South,176,5.0,14.0,88,0.04,,,0.79,,2013-03-20 16:52:00,
2013-03-20 10:02:00,48.0,44.0,29.40,SE,140,6.0,28.0,85,0.03,,,0.79,,2013-03-20 17:02:00,
2013-03-20 10:11:00,48.0,44.0,29.40,SE,140,6.0,28.0,85,0.03,,,0.79,,2013-03-20 17:11:00,
2013-03-20 10:21:00,49.0,45.0,29.42,SSE,166,6.0,15.0,85,0.02,,,0.79,,2013-03-20 17:21:00,
2013-03-20 10:32:00,49.0,44.0,29.44,WSW,255,5.0,21.0,83,0.01,,,0.79,,2013-03-20 17:32:00,
2013-03-20 10:42:00,49.0,44.0,29.44,WSW,255,5.0,21.0,83,0.01,,,0.79,,2013-03-20 17:42:00,
2013-03-20 10:52:00,49.0,44.0,29.46,SW,219,2.0,19.0,83,0.00,,,0.79,,2013-03-20 17:52:00,
2013-03-20 11:01:00,49.0,43.0,29.47,South,182,6.0,19.0,80,0.00,,,0.79,,2013-03-20 18:01:00,
2013-03-20 11:12:00,49.0,43.0,29.47,South,182,6.0,19.0,80,0.00,,,0.79,,2013-03-20 18:12:00,
2013-03-20 11:22:00,49.0,43.0,29.48,South,182,9.0,17.0,80,0.00,,,0.79,,2013-03-20 18:22:00,
2013-03-20 11:32:00,49.0,43.0,29.49,SSW,209,5.0,19.0,79,0.00,,,0.79,,2013-03-20 18:32:00,
2013-03-20 11:42:00,49.0,43.0,29.49,SSW,209,5.0,19.0,79,0.00,,,0.79,,2013-03-20 18:42:00,
2013-03-20 11:52:00,49.0,42.0,29.51,SSW,210,5.0,12.0,78,0.00,,,0.79,,2013-03-20 18:52:00,
2013-03-20 12:01:00,50.0,43.0,29.51,SSW,211,6.0,20.0,78,0.00,,,0.79,,2013-03-20 19:01:00,
2013-03-20 12:22:00,50.0,42.0,29.52,SSW,204,6.0,17.0,75,0.00,,,0.79,,2013-03-20 19:22:00,
2013-03-20 12:31:00,48.0,42.0,29.54,SSE,162,6.0,20.0,79,0.00,,,0.79,,2013-03-20 19:31:00,
2013-03-20 12:42:00,48.0,42.0,29.54,SSE,162,6.0,20.0,79,0.00,,,0.79,,2013-03-20 19:42:00,
2013-03-20 12:53:00,48.0,42.0,29.56,South,188,5.0,16.0,79,0.01,,,0.80,,2013-03-20 19:53:00,
2013-03-20 13:02:00,49.0,42.0,29.57,South,173,7.0,17.0,78,0.01,,,0.80,,2013-03-20 20:02:00,
2013-03-20 13:12:00,49.0,42.0,29.57,South,173,7.0,17.0,78,0.01,,,0.80,,2013-03-20 20:12:00,
2013-03-20 13:22:00,48.0,43.0,29.57,SSE,155,6.0,18.0,82,0.01,,,0.80,,2013-03-20 20:22:00,
2013-03-20 13:31:00,49.0,43.0,29.58,SE,146,6.0,16.0,79,0.02,,,0.81,,2013-03-20 20:31:00,
2013-03-20 13:42:00,49.0,43.0,29.58,SE,146,6.0,16.0,79,0.02,,,0.81,,2013-03-20 20:42:00,
2013-03-20 13:52:00,49.0,42.0,29.59,South,190,6.0,16.0,76,0.01,,,0.81,,2013-03-20 20:52:00,
2013-03-20 14:01:00,50.0,43.0,29.59,South,169,5.0,16.0,76,0.01,,,0.81,,2013-03-20 21:01:00,
2013-03-20 14:11:00,50.0,43.0,29.59,South,169,5.0,16.0,76,0.01,,,0.81,,2013-03-20 21:11:00,
2013-03-20 14:22:00,50.0,42.0,29.59,South,190,6.0,22.0,75,0.01,,,0.81,,2013-03-20 21:22:00,
2013-03-20 14:32:00,49.0,41.0,29.59,SSW,209,6.0,20.0,75,0.00,,,0.81,,2013-03-20 21:32:00,
2013-03-20 14:42:00,49.0,41.0,29.59,SSW,209,6.0,20.0,75,0.00,,,0.81,,2013-03-20 21:42:00,
2013-03-20 14:52:00,49.0,42.0,29.58,South,188,10.0,22.0,76,0.00,,,0.81,,2013-03-20 21:52:00,
2013-03-20 15:02:00,49.0,41.0,29.59,SSW,212,9.0,19.0,75,0.00,,,0.81,,2013-03-20 22:02:00,
2013-03-20 15:12:00,49.0,41.0,29.59,SSW,212,9.0,19.0,75,0.00,,,0.81,,2013-03-20 22:12:00,
2013-03-20 15:22:00,50.0,42.0,29.60,WSW,251,7.0,18.0,74,0.00,,,0.81,,2013-03-20 22:22:00,
2013-03-20 15:32:00,50.0,41.0,29.61,SSW,200,8.0,17.0,71,0.00,,,0.81,,2013-03-20 22:32:00,
2013-03-20 15:42:00,50.0,41.0,29.61,SSW,200,8.0,17.0,71,0.00,,,0.81,,2013-03-20 22:42:00,
2013-03-20 15:52:00,49.0,40.0,29.62,South,180,9.0,20.0,71,0.00,,,0.81,,2013-03-20 22:52:00,
2013-03-20 16:01:00,49.0,40.0,29.63,South,171,6.0,15.0,72,0.00,,,0.81,,2013-03-20 23:01:00,
2013-03-20 16:12:00,49.0,40.0,29.63,South,171,6.0,15.0,72,0.00,,,0.81,,2013-03-20 23:12:00,
2013-03-20 16:22:00,50.0,39.0,29.64,WSW,248,9.0,17.0,67,0.00,,,0.81,,2013-03-20 23:22:00,
2013-03-20 16:31:00,50.0,40.0,29.65,South,177,7.0,23.0,68,0.00,,,0.81,,2013-03-20 23:31:00,
2013-03-20 16:42:00,50.0,40.0,29.65,South,177,7.0,23.0,68,0.00,,,0.81,,2013-03-20 23:42:00,
2013-03-20 16:52:00,50.0,39.0,29.65,SSE,161,4.0,26.0,67,0.00,,,0.81,,2013-03-20 23:52:00,
2013-03-20 17:02:00,50.0,39.0,29.67,SW,223,8.0,17.0,66,0.00,,,0.81,,2013-03-21 00:02:00,
2013-03-20 17:12:00,50.0,39.0,29.67,SW,223,8.0,17.0,66,0.00,,,0.81,,2013-03-21 00:12:00,
2013-03-20 17:22:00,51.0,40.0,29.69,SW,236,4.0,13.0,65,0.00,,,0.77,,2013-03-21 00:22:00,
2013-03-20 17:32:00,50.0,39.0,29.69,SSE,155,4.0,8.0,65,0.00,,,0.77,,2013-03-21 00:32:00,
2013-03-20 17:41:00,50.0,39.0,29.69,SSE,155,4.0,8.0,65,0.00,,,0.77,,2013-03-21 00:41:00,
2013-03-20 17:52:00,50.0,39.0,29.69,WSW,248,3.0,10.0,66,0.00,,,0.77,,2013-03-21 00:52:00,
2013-03-20 18:01:00,49.0,39.0,29.70,South,176,3.0,12.0,67,0.00,,,0.77,,2013-03-21 01:01:00,
2013-03-20 18:11:00,49.0,39.0,29.70,South,176,3.0,12.0,67,0.00,,,0.77,,2013-03-21 01:11:00,
2013-03-20 18:21:00,48.0,38.0,29.72,SE,134,4.0,7.0,67,0.00,,,0.72,,2013-03-21 01:21:00,
2013-03-20 18:32:00,48.0,37.0,29.72,SSW,195,6.0,17.0,65,0.00,,,0.72,,2013-03-21 01:32:00,
2013-03-20 18:42:00,48.0,37.0,29.72,SSW,195,6.0,17.0,65,0.00,,,0.72,,2013-03-21 01:42:00,
2013-03-20 18:52:00,47.0,37.0,29.74,SSW,194,7.0,17.0,69,0.00,,,0.72,,2013-03-21 01:52:00,
2013-03-20 19:01:00,46.0,37.0,29.75,South,191,5.0,13.0,71,0.00,,,0.72,,2013-03-21 02:01:00,
2013-03-20 19:12:00,46.0,37.0,29.75,South,191,5.0,13.0,71,0.00,,,0.72,,2013-03-21 02:12:00,
2013-03-20 19:22:00,45.0,36.0,29.76,SSW,212,7.0,14.0,70,0.00,,,0.66,,2013-03-21 02:22:00,
2013-03-20 19:32:00,45.0,35.0,29.78,SSW,204,3.0,9.0,69,0.00,,,0.66,,2013-03-21 02:32:00,
2013-03-20 19:42:00,45.0,35.0,29.78,SSW,204,3.0,9.0,69,0.00,,,0.66,,2013-03-21 02:42:00,
2013-03-20 19:52:00,45.0,35.0,29.78,SSW,204,3.0,9.0,69,0.00,,,0.66,,2013-03-21 02:52:00,
2013-03-20 20:02:00,43.0,34.0,29.80,South,169,6.0,14.0,71,0.00,,,0.66,,2013-03-21 03:02:00,
2013-03-20 20:11:00,43.0,34.0,29.80,South,169,6.0,14.0,71,0.00,,,0.66,,2013-03-21 03:11:00,
2013-03-20 20:21:00,42.0,35.0,29.82,South,186,5.0,14.0,75,0.00,,,0.63,,2013-03-21 03:21:00,
2013-03-20 20:32:00,42.0,35.0,29.83,South,176,6.0,15.0,76,0.00,,,0.63,,2013-03-21 03:32:00,
2013-03-20 20:43:00,42.0,35.0,29.83,South,176,6.0,15.0,76,0.00,,,0.63,,2013-03-21 03:43:00,
2013-03-20 20:53:00,41.0,34.0,29.84,SSW,207,2.0,9.0,76,0.00,,,0.63,,2013-03-21 03:53:00,
2013-03-20 21:02:00,41.0,34.0,29.84,South,169,4.0,13.0,77,0.00,,,0.63,,2013-03-21 04:02:00,
2013-03-20 21:12:00,41.0,34.0,29.84,South,169,4.0,13.0,77,0.00,,,0.63,,2013-03-21 04:12:00,
2013-03-20 21:22:00,41.0,34.0,29.87,South,169,3.0,11.0,77,0.00,,,0.58,,2013-03-21 04:22:00,
2013-03-20 21:32:00,41.0,34.0,29.89,WNW,292,5.0,11.0,76,0.00,,,0.58,,2013-03-21 04:32:00,
2013-03-20 21:43:00,41.0,34.0,29.89,WNW,292,5.0,11.0,76,0.00,,,0.58,,2013-03-21 04:43:00,
2013-03-20 21:53:00,41.0,34.0,29.91,South,190,4.0,9.0,76,0.00,,,0.58,,2013-03-21 04:53:00,
2013-03-20 22:02:00,40.0,33.0,29.93,NNE,14,0.0,4.0,77,0.00,,,0.58,,2013-03-21 05:02:00,
2013-03-20 22:12:00,40.0,33.0,29.93,NNE,14,0.0,4.0,77,0.00,,,0.58,,2013-03-21 05:12:00,
2013-03-20 22:22:00,40.0,33.0,29.94,WSW,249,1.0,3.0,77,0.00,,,0.54,,2013-03-21 05:22:00,
2013-03-20 22:32:00,40.0,33.0,29.95,SSW,208,1.0,3.0,76,0.00,,,0.54,,2013-03-21 05:32:00,
2013-03-20 22:43:00,40.0,33.0,29.95,SSW,208,1.0,3.0,76,0.00,,,0.54,,2013-03-21 05:43:00,
2013-03-20 22:52:00,40.0,33.0,29.96,South,178,3.0,7.0,76,0.00,,,0.54,,2013-03-21 05:52:00,
2013-03-20 23:02:00,40.0,33.0,29.97,South,170,3.0,11.0,76,0.00,,,0.54,,2013-03-21 06:02:00,
2013-03-20 23:11:00,40.0,33.0,29.97,South,170,3.0,11.0,76,0.00,,,0.54,,2013-03-21 06:11:00,
2013-03-20 23:22:00,39.0,33.0,29.98,South,181,1.0,4.0,78,0.00,,,0.48,,2013-03-21 06:22:00,
2013-03-20 23:31:00,39.0,33.0,29.98,South,186,0.0,3.0,79,0.00,,,0.48,,2013-03-21 06:31:00,
2013-03-20 23:42:00,39.0,33.0,29.98,South,186,0.0,3.0,79,0.00,,,0.48,,2013-03-21 06:42:00,
2013-03-20 23:52:00,38.0,33.0,29.99,South,186,0.0,1.0,81,0.00,,,0.48,,2013-03-21 06:52:00,